Flight Track Log - Related Links

Times and Time Zones

All times are in EDT time to prevent confusion due to time zone crossing. See the ASQ5685 flight status page for this flight to view local times or setup timezone preferences in your user account.

Time Position Orientation Groundspeed Altitude Reporting Facility
EDT Latitude Longitude Course Direction KTS MPH feet Rate Location/Type
Thu 09:23:23 AM 33.6333 -84.3833 48° Northeast 178 205 2,300  Level Atlanta TRACON
Thu 09:24:17 AM 33.6333 -84.3000 90° East 250 288 3,500 1,895 Climbing Atlanta TRACON
Thu 09:25:17 AM 33.6333 -84.2167 90° East 269 310 5,900 2,350 Climbing Atlanta TRACON
Thu 09:26:00 AM 33.7618 -83.9583 54° Northeast  Level FlightAware Approximate
Thu 09:26:17 AM 33.6333 -84.1333 90° East 278 320 8,200  Level Atlanta TRACON
Thu 09:27:00 AM 33.8213 -83.8591 54° Northeast  Level FlightAware Approximate
Thu 09:27:38 AM 33.6900 -84.0289 57° Northeast 284 327 10,400  Level Atlanta Center
Thu 09:28:00 AM 33.8828 -83.7618 48° Northeast  Level FlightAware Approximate
Thu 09:28:38 AM 33.7525 -83.9464 48° Northeast 313 360 11,500  Level Atlanta Center
Thu 09:29:38 AM 33.8169 -83.8614 48° Northeast 329 379 13,100 1,550 Climbing Atlanta Center
Thu 09:30:38 AM 33.8794 -83.7811 47° Northeast 334 384 14,600 1,450 Climbing Atlanta Center
Thu 09:31:38 AM 33.9439 -83.6908 49° Northeast 339 390 16,000 1,100 Climbing Atlanta Center
Thu 09:32:38 AM 33.9958 -83.6078 53° Northeast 344 396 16,800 1,000 Climbing Atlanta Center
Thu 09:33:38 AM 34.0561 -83.5122 53° Northeast 356 410 18,000 1,400 Climbing Atlanta Center
Thu 09:34:38 AM 34.1161 -83.4189 52° Northeast 356 410 19,600 1,400 Climbing Atlanta Center
Thu 09:35:38 AM 34.1719 -83.3258 54° Northeast 350 403 20,800 1,050 Climbing Atlanta Center
Thu 09:36:38 AM 34.2278 -83.2347 53° Northeast 344 396 21,700 900 Climbing Atlanta Center
Thu 09:37:38 AM 34.2878 -83.1411 52° Northeast 349 402 22,600 850 Climbing Atlanta Center
Thu 09:38:38 AM 34.3475 -83.0400 54° Northeast 349 402 23,400 800 Climbing Atlanta Center
Thu 09:39:38 AM 34.4153 -82.9333 52° Northeast 357 411 24,200 800 Climbing Atlanta Center
Thu 09:40:38 AM 34.4814 -82.8342 51° Northeast 368 423 25,000 750 Climbing Atlanta Center
Thu 09:41:38 AM 34.5408 -82.7350 54° Northeast 368 423 25,700 700 Climbing Atlanta Center
Thu 09:42:38 AM 34.6022 -82.6356 53° Northeast 368 423 26,400 600 Climbing Atlanta Center
Thu 09:43:38 AM 34.6597 -82.5439 53° Northeast 368 423 26,900 300 Climbing Atlanta Center
Thu 09:44:38 AM 34.7231 -82.4392 54° Northeast 373 429 27,000 50 Climbing Atlanta Center
Thu 09:45:38 AM 34.7864 -82.3367 53° Northeast 378 435 27,000  Level Atlanta Center
Thu 09:46:38 AM 34.8494 -82.2317 54° Northeast 378 435 27,000  Level Atlanta Center
Thu 09:47:38 AM 34.9186 -82.1161 54° Northeast 378 435 27,000  Level Atlanta Center
Thu 09:48:38 AM 34.9778 -82.0236 52° Northeast 386 444 27,000  Level Atlanta Center
Thu 09:49:38 AM 35.0406 -81.9181 54° Northeast 386 444 27,000  Level Atlanta Center
Thu 09:50:38 AM 35.1011 -81.8047 57° Northeast 386 444 27,000  Level Atlanta Center
Thu 09:51:38 AM 35.1575 -81.6939 58° Northeast 386 444 27,000  Level Atlanta Center
Thu 09:52:38 AM 35.2158 -81.5831 57° Northeast 391 450 27,000  Level Atlanta Center
Thu 09:53:38 AM 35.2742 -81.4694 58° Northeast 396 456 27,000  Level Atlanta Center
Thu 09:54:38 AM 35.3403 -81.3450 57° Northeast 391 450 27,000  Level Atlanta Center
Thu 09:55:38 AM 35.4003 -81.2283 58° Northeast 391 450 27,000  Level Atlanta Center
Thu 09:56:38 AM 35.4581 -81.1142 58° Northeast 391 450 27,000  Level Atlanta Center
Thu 09:57:38 AM 35.5139 -81.0103 57° Northeast 396 456 27,000  Level Atlanta Center
Thu 09:58:38 AM 35.5775 -80.8853 58° Northeast 396 456 27,000  Level Atlanta Center
Thu 09:59:38 AM 35.6392 -80.7706 56° Northeast 396 456 27,000  Level Atlanta Center
Thu 10:00:38 AM 35.6967 -80.6583 58° Northeast 395 455 27,000  Level Atlanta Center
Thu 10:02:24 AM 35.7936 -80.4703 58° Northeast 385 443 27,000  Level Washington Center
Thu 10:03:24 AM 35.8525 -80.3533 58° Northeast 385 443 27,000  Level Washington Center
Thu 10:04:23 AM 35.9114 -80.2417 57° Northeast 396 456 27,000  Level Washington Center
Thu 10:05:24 AM 35.9700 -80.1269 58° Northeast 396 456 27,000  Level Washington Center
Thu 10:06:24 AM 36.0306 -80.0150 56° Northeast 390 449 27,000  Level Washington Center
Thu 10:07:25 AM 36.0908 -79.9025 56° Northeast 390 449 27,000  Level Washington Center
Thu 10:08:23 AM 36.1533 -79.7903 55° Northeast 390 449 27,000 -50 Level Washington Center
Thu 10:09:24 AM 36.2281 -79.6861 48° Northeast 400 460 26,900 -443 Descending Washington Center
Thu 10:10:25 AM 36.3111 -79.5692 49° Northeast 400 460 26,100 -744 Descending Washington Center
Thu 10:11:25 AM 36.3897 -79.4597 48° Northeast 413 475 25,400 -555 Descending Washington Center
Thu 10:12:24 AM 36.4706 -79.3475 48° Northeast 418 481 25,000 -202 Descending Washington Center
Thu 10:13:24 AM 36.5492 -79.2350 49° Northeast 423 487 25,000  Level Washington Center
Thu 10:14:23 AM 36.6189 -79.1372 48° Northeast 423 487 25,000  Level Washington Center
Thu 10:15:24 AM 36.6950 -79.0294 49° Northeast 423 487 25,000  Level Washington Center
Thu 10:16:24 AM 36.7711 -78.9214 49° Northeast 423 487 25,000  Level Washington Center
Thu 10:17:25 AM 36.8578 -78.8031 48° Northeast 423 487 25,000  Level Washington Center
Thu 10:18:25 AM 36.9458 -78.7156 38° Northeast 412 474 25,000  Level Washington Center
Thu 10:19:23 AM 37.0336 -78.6256 39° Northeast 407 468 25,000  Level Washington Center
Thu 10:20:24 AM 37.1233 -78.5353 39° Northeast 401 461 25,000 -590 Level Washington Center
Thu 10:21:25 AM 37.2067 -78.4550 37° Northeast 410 472 23,800 -1,289 Descending Washington Center
Thu 10:22:25 AM 37.2986 -78.3619 39° Northeast 416 479 22,400 -900 Descending Washington Center
Thu 10:23:25 AM 37.3883 -78.2711 39° Northeast 416 479 22,000 -203 Descending Washington Center
Thu 10:24:23 AM 37.4822 -78.1750 39° Northeast 405 466 22,000  Level Washington Center
Thu 10:25:24 AM 37.5653 -78.0914 39° Northeast 394 453 22,000 -99 Level Washington Center
Thu 10:26:24 AM 37.6442 -78.0072 40° Northeast 382 440 21,800 -992 Descending Washington Center
Thu 10:27:25 AM 37.7317 -77.9156 40° Northeast 387 445 20,000 -1,884 Descending Washington Center
Thu 10:28:25 AM 37.8208 -77.8236 39° Northeast 398 458 18,000 -1,900 Descending Washington Center
Thu 10:29:25 AM 37.9103 -77.7317 39° Northeast 408 470 16,200 -1,932 Descending Washington Center
Thu 10:30:23 AM 37.9953 -77.6417 40° Northeast 408 470 14,200 -1,866 Descending Washington Center
Thu 10:31:24 AM 38.0694 -77.5647 39° Northeast 390 449 12,500 -1,820 Descending Washington Center
Thu 10:32:25 AM 38.1458 -77.4900 38° Northeast 385 443 10,500 -1,289 Descending Washington Center
Thu 10:33:25 AM 38.2503 -77.4717 North 336 387 9,900 -1,140 Descending Washington Center
Thu 10:34:26 AM 38.3294 -77.4708 360° North 303 349 8,200 -1,475 Descending Washington Center
Thu 10:35:23 AM 38.4047 -77.4703 360° North 286 329 7,000 -1,128 Descending Washington Center
Thu 10:36:23 AM 38.4797 -77.4694 360° North 269 310 6,000 -800 Descending Washington Center
Thu 10:37:23 AM 38.5464 -77.4683 North 262 302 5,400 -942 Descending Washington Center
Thu 10:38:24 AM 38.6089 -77.4672 North 242 278 4,100 -694 Descending Washington Center
Thu 10:39:24 AM 38.6675 -77.4661 North 218 251 4,000 -50 Descending Washington Center
Thu 10:40:25 AM 38.7217 -77.4650 North 204 235 4,000 -367 Level Washington Center
Thu 10:41:51 AM 38.7833 -77.4667 359° North 143 165 3,100 -628 Descending Potomac TRACON

Login

Don't have an account? Register now (free) for customized features, flight alerts, and more!